Location: Casteau
(50.5142°N, 4.0161°E)
Time: 02:29:00
(UTC+00:00)

Transit 2A - Pass Details

Date: 04 August 2021
Orbit: 594 x 964 km, 66.7° (Epoch: 21 September)

Event Time Altitude Azimuth Distance (km) Brightness Sun altitude
Rises 10:27:22 0° 316° (NW) 3,078 8.8 52.7°
Reaches altitude 10° 10:30:39 10° 340° (NNW) 2,235 8.2 53.0°
Maximum altitude 10:33:36 15° 16° (NNE) 1,969 8.1 53.3°
Drops below altitude 10° 10:36:42 10° 51° (NE) 2,378 8.6 53.5°
Sets 10:40:22 0° 73° (ENE) 3,395 9.4 53.8°
